• In Deutschland
  • Länderverzeichnis
  • Für 7 Tage
  • Wassertemperatur
  • Satellitenkarten
  • Wetterkarte
  • Widgets
  • user-avatar
    Anmelden

    Stündliche Wetter Masari Sharif

    Heute, 21 November, Dienstag

    Zeit Temperatur Niederschläge Wind Luftdruck Luftfeuchtigkeit
    00:00 +5°C° 0 mm 2 m/S 657 mmHg 27%
    01:00 +5°C° 0 mm 2 m/S 656 mmHg 26%
    02:00 +5°C° 0 mm 2 m/S 656 mmHg 25%
    03:00 +5°C° 0 mm 2 m/S 656 mmHg 24%
    04:00 +5°C° 0 mm 2 m/S 656 mmHg 23%
    05:00 +4°C° 0 mm 3 m/S 656 mmHg 22%
    06:00 +4°C° 0 mm 3 m/S 656 mmHg 21%
    07:00 +4°C° 0 mm 3 m/S 656 mmHg 20%
    08:00 +7°C° 0 mm 2 m/S 657 mmHg 17%
    09:00 +10°C° 0 mm 2 m/S 657 mmHg 14%
    10:00 +13°C° 0 mm 2 m/S 658 mmHg 11%
    11:00 +14°C° 0 mm 2 m/S 658 mmHg 10%
    12:00 +14°C° 0 mm 2 m/S 657 mmHg 10%
    13:00 +14°C° 0 mm 3 m/S 657 mmHg 9%
    14:00 +14°C° 0 mm 2 m/S 656 mmHg 11%
    15:00 +12°C° 0 mm 2 m/S 656 mmHg 13%
    16:00 +10°C° 0 mm 2 m/S 655 mmHg 15%
    17:00 +9°C° 0 mm 2 m/S 655 mmHg 15%
    18:00 +8°C° 0 mm 2 m/S 655 mmHg 15%
    19:00 +7°C° 0 mm 2 m/S 655 mmHg 15%
    20:00 +7°C° 0 mm 2 m/S 655 mmHg 14%
    21:00 +7°C° 0 mm 2 m/S 654 mmHg 14%
    22:00 +7°C° 0 mm 2 m/S 654 mmHg 13%
    23:00 +7°C° 0 mm 2 m/S 654 mmHg 13%

    Morgen, 22 November, Mittwoch

    Zeit Temperatur Niederschläge Wind Luftdruck Luftfeuchtigkeit
    00:00 +7°C° 0 mm 3 m/S 654 mmHg 14%
    01:00 +5°C° 0 mm 3 m/S 654 mmHg 14%
    02:00 +5°C° 0 mm 3 m/S 653 mmHg 13%
    03:00 +6°C° 0 mm 2 m/S 653 mmHg 13%
    04:00 +5°C° 0 mm 2 m/S 653 mmHg 13%
    05:00 +5°C° 0 mm 3 m/S 653 mmHg 13%
    06:00 +5°C° 0 mm 3 m/S 653 mmHg 12%
    07:00 +5°C° 0 mm 3 m/S 654 mmHg 12%
    08:00 +9°C° 0 mm 3 m/S 654 mmHg 10%
    09:00 +12°C° 0 mm 2 m/S 655 mmHg 8%
    10:00 +15°C° 0 mm 2 m/S 656 mmHg 7%
    11:00 +16°C° 0 mm 2 m/S 655 mmHg 6%
    12:00 +17°C° 0 mm 2 m/S 655 mmHg 6%
    13:00 +17°C° 0 mm 3 m/S 654 mmHg 5%
    14:00 +16°C° 0 mm 2 m/S 654 mmHg 7%
    15:00 +14°C° 0 mm 2 m/S 653 mmHg 9%
    16:00 +12°C° 0 mm 1 m/S 652 mmHg 11%
    17:00 +12°C° 0 mm 1 m/S 653 mmHg 11%
    18:00 +10°C° 0 mm 2 m/S 653 mmHg 10%
    19:00 +10°C° 0 mm 2 m/S 653 mmHg 10%
    20:00 +10°C° 0 mm 2 m/S 653 mmHg 11%
    21:00 +9°C° 0 mm 2 m/S 653 mmHg 12%
    22:00 +9°C° 0 mm 2 m/S 653 mmHg 12%
    23:00 +9°C° 0 mm 2 m/S 653 mmHg 13%

    übermorgen, 23 November, Donnerstag

    Zeit Temperatur Niederschläge Wind Luftdruck Luftfeuchtigkeit
    00:00 +9°C° 0 mm 2 m/S 652 mmHg 14%
    01:00 +9°C° 0 mm 2 m/S 652 mmHg 14%
    02:00 +9°C° 0 mm 2 m/S 652 mmHg 14%
    03:00 +9°C° 0 mm 2 m/S 652 mmHg 15%
    04:00 +9°C° 0 mm 2 m/S 652 mmHg 15%
    05:00 +9°C° 0 mm 2 m/S 652 mmHg 15%
    06:00 +9°C° 0 mm 2 m/S 652 mmHg 15%
    07:00 +9°C° 0 mm 2 m/S 653 mmHg 15%
    08:00 +12°C° 0 mm 2 m/S 653 mmHg 13%
    09:00 +14°C° 0 mm 2 m/S 654 mmHg 11%
    10:00 +18°C° 0 mm 1 m/S 655 mmHg 9%
    11:00 +18°C° 0 mm 1 m/S 655 mmHg 10%
    12:00 +19°C° 0 mm 1 m/S 654 mmHg 10%
    13:00 +18°C° 0 mm 2 m/S 654 mmHg 10%
    14:00 +18°C° 0 mm 1 m/S 654 mmHg 13%
    15:00 +16°C° 0 mm 1 m/S 654 mmHg 16%
    16:00 +15°C° 0 mm 1 m/S 653 mmHg 19%
    17:00 +14°C° 0 mm 1 m/S 654 mmHg 20%
    18:00 +14°C° 0 mm 1 m/S 654 mmHg 22%
    19:00 +13°C° 0 mm 1 m/S 654 mmHg 23%
    20:00 +13°C° 0 mm 2 m/S 654 mmHg 25%
    21:00 +12°C° 0 mm 2 m/S 654 mmHg 26%
    22:00 +12°C° 0 mm 2 m/S 654 mmHg 27%
    23:00 +12°C° 0 mm 2 m/S 654 mmHg 27%

    24 November, Freitag

    Zeit Temperatur Niederschläge Wind Luftdruck Luftfeuchtigkeit
    00:00 +10°C° 0 mm 2 m/S 654 mmHg 28%
    01:00 +10°C° 0 mm 2 m/S 653 mmHg 28%
    02:00 +10°C° 0 mm 2 m/S 653 mmHg 28%
    03:00 +10°C° 0 mm 2 m/S 653 mmHg 28%
    04:00 +10°C° 0 mm 2 m/S 653 mmHg 29%
    05:00 +10°C° 0 mm 2 m/S 654 mmHg 29%
    06:00 +10°C° 0 mm 2 m/S 654 mmHg 29%
    07:00 +10°C° 0 mm 2 m/S 654 mmHg 30%
    08:00 +12°C° 0 mm 2 m/S 655 mmHg 27%
    09:00 +14°C° 0 mm 2 m/S 655 mmHg 24%
    10:00 +16°C° 0 mm 2 m/S 656 mmHg 20%
    11:00 +17°C° 0 mm 2 m/S 655 mmHg 20%
    12:00 +17°C° 0 mm 2 m/S 655 mmHg 19%
    13:00 +17°C° 0 mm 2 m/S 654 mmHg 19%
    14:00 +17°C° 0 mm 2 m/S 654 mmHg 20%
    15:00 +16°C° 0 mm 2 m/S 654 mmHg 22%
    16:00 +15°C° 0 mm 1 m/S 654 mmHg 23%
    17:00 +14°C° 0 mm 1 m/S 654 mmHg 25%
    18:00 +14°C° 0 mm 1 m/S 654 mmHg 26%
    19:00 +13°C° 0 mm 1 m/S 654 mmHg 28%
    20:00 +12°C° 0 mm 1 m/S 654 mmHg 29%
    21:00 +12°C° 0 mm 1 m/S 654 mmHg 31%
    22:00 +11°C° 0 mm 1 m/S 654 mmHg 33%
    23:00 +11°C° 0 mm 1 m/S 654 mmHg 33%

    25 November, Samstag

    Zeit Temperatur Niederschläge Wind Luftdruck Luftfeuchtigkeit
    00:00 +11°C° 0 mm 1 m/S 654 mmHg 33%
    01:00 +10°C° 0 mm 2 m/S 654 mmHg 33%
    02:00 +10°C° 0 mm 2 m/S 653 mmHg 32%
    03:00 +10°C° 0 mm 2 m/S 653 mmHg 31%
    04:00 +10°C° 0 mm 3 m/S 653 mmHg 30%
    05:00 +10°C° 0 mm 3 m/S 653 mmHg 30%
    06:00 +10°C° 0 mm 3 m/S 653 mmHg 30%
    07:00 +10°C° 0 mm 3 m/S 653 mmHg 30%
    08:00 +12°C° 0 mm 3 m/S 654 mmHg 27%
    09:00 +14°C° 0 mm 3 m/S 654 mmHg 24%
    10:00 +17°C° 0 mm 2 m/S 654 mmHg 21%
    11:00 +17°C° 0,1 mm 2 m/S 654 mmHg 21%
    12:00 +18°C° 0,1 mm 2 m/S 654 mmHg 20%
    13:00 +19°C° 0,1 mm 2 m/S 653 mmHg 19%
    14:00 +17°C° 0,2 mm 4 m/S 653 mmHg 25%
    15:00 +14°C° 0,2 mm 6 m/S 654 mmHg 31%
    16:00 +11°C° 0,2 mm 8 m/S 654 mmHg 37%
    17:00 +9°C° 1,1 mm 7 m/S 654 mmHg 52%
    18:00 +8°C° 1,1 mm 6 m/S 655 mmHg 67%
    19:00 +6°C° 1,1 mm 5 m/S 656 mmHg 82%
    20:00 +6°C° 0,9 mm 4 m/S 656 mmHg 82%
    21:00 +6°C° 0,9 mm 4 m/S 657 mmHg 82%
    22:00 +6°C° 0,9 mm 4 m/S 658 mmHg 82%
    23:00 +5°C° 0,2 mm 3 m/S 658 mmHg 82%

    26 November, Sonntag

    Zeit Temperatur Niederschläge Wind Luftdruck Luftfeuchtigkeit
    00:00 +5°C° 0,2 mm 3 m/S 659 mmHg 82%
    01:00 +6°C° 0,2 mm 2 m/S 659 mmHg 82%
    02:00 +6°C° 0,1 mm 2 m/S 659 mmHg 83%
    03:00 +7°C° 0,1 mm 1 m/S 660 mmHg 83%
    04:00 +6°C° 0,1 mm 1 m/S 660 mmHg 84%
    05:00 +6°C° 0,1 mm 1 m/S 660 mmHg 84%
    06:00 +6°C° 0,1 mm 1 m/S 660 mmHg 84%
    07:00 +6°C° 0,1 mm 1 m/S 661 mmHg 83%
    08:00 +7°C° 0,1 mm 1 m/S 661 mmHg 79%
    09:00 +7°C° 0,1 mm 2 m/S 660 mmHg 74%
    10:00 +8°C° 0,1 mm 2 m/S 660 mmHg 69%
    11:00 +8°C° 0 mm 3 m/S 660 mmHg 67%
    12:00 +9°C° 0 mm 3 m/S 660 mmHg 65%
    13:00 +9°C° 0 mm 3 m/S 659 mmHg 62%
    14:00 +9°C° 0 mm 3 m/S 659 mmHg 64%
    15:00 +9°C° 0 mm 2 m/S 659 mmHg 65%
    16:00 +9°C° 0 mm 2 m/S 659 mmHg 67%
    17:00 +8°C° 0 mm 2 m/S 659 mmHg 70%
    18:00 +9°C° 0 mm 1 m/S 659 mmHg 73%
    19:00 +8°C° 0 mm 1 m/S 659 mmHg 76%
    20:00 +8°C° 0 mm 1 m/S 659 mmHg 77%
    21:00 +7°C° 0 mm 1 m/S 658 mmHg 77%
    22:00 +6°C° 0 mm 0 m/S 658 mmHg 78%
    23:00 +6°C° 0 mm 0 m/S 658 mmHg 79%
    Mehr zeigen